| time (UTC) | temp C | wind direction | speed KPH | gust KPH | rain 1hr cm | rain 24hr cm | rain mn cm | humidity % | barometer mb |
| 20260510095204 | 17 | 200 | 1.6 | 8.0 | 0.00 | 0.18 | 0.18 | 88 | 1010.7 |
| 20260510094805 | 17 | 195 | 1.6 | 6.4 | 0.00 | 0.18 | 0.18 | 88 | 1010.8 |
| 20260510094405 | 17 | 194 | 1.6 | 3.2 | 0.00 | 0.18 | 0.18 | 88 | 1010.5 |
| 20260510094006 | 17 | 194 | 1.6 | 6.4 | 0.00 | 0.18 | 0.18 | 89 | 1010.6 |
| 20260510093605 | 17 | 194 | 1.6 | 6.4 | 0.00 | 0.18 | 0.18 | 89 | 1010.7 |
| 20260510093205 | 17 | 191 | 1.6 | 9.7 | 0.00 | 0.18 | 0.18 | 90 | 1010.8 |
| 20260510092804 | 17 | 190 | 1.6 | 9.7 | 0.00 | 0.18 | 0.18 | 90 | 1010.8 |
| 20260510092404 | 17 | 172 | 0.0 | 8.0 | 0.00 | 0.18 | 0.18 | 90 | 1010.6 |
| 20260510092005 | 17 | 0 | 0.0 | 0.0 | 0.00 | 0.18 | 0.18 | 90 | 1010.1 |
| 20260510091605 | 17 | 166 | 0.0 | 1.6 | 0.00 | 0.18 | 0.18 | 89 | 1010.1 |
| 20260510091204 | 17 | 167 | 0.0 | 3.2 | 0.00 | 0.18 | 0.18 | 89 | 1010.2 |
| 20260510090805 | 17 | 167 | 0.0 | 3.2 | 0.00 | 0.18 | 0.18 | 88 | 1010.2 |
| 20260510090406 | 17 | 132 | 1.6 | 3.2 | 0.00 | 0.18 | 0.18 | 87 | 1010.3 |
| 20260510090005 | 17 | 121 | 1.6 | 3.2 | 0.00 | 0.18 | 0.18 | 87 | 1010.1 |
| 20260510085605 | 17 | 62 | 1.6 | 6.4 | 0.00 | 0.18 | 0.18 | 87 | 1009.7 |
| 20260510085204 | 18 | 45 | 1.6 | 6.4 | 0.00 | 0.18 | 0.18 | 87 | 1009.5 |
| 20260510084805 | 18 | 29 | 1.6 | 6.4 | 0.00 | 0.18 | 0.18 | 86 | 1009.4 |
| 20260510084006 | 18 | 23 | 3.2 | 11.3 | 0.00 | 0.18 | 0.18 | 87 | 1008.5 |
| 20260510083605 | 18 | 13 | 4.8 | 12.9 | 0.00 | 0.18 | 0.18 | 87 | 1008.3 |
| 20260510083205 | 18 | 351 | 3.2 | 12.9 | 0.00 | 0.18 | 0.18 | 88 | 1007.6 |
| 20260510082805 | 18 | 202 | 1.6 | 12.9 | 0.00 | 0.18 | 0.18 | 89 | 1006.6 |
| 20260510082405 | 18 | 155 | 1.6 | 8.0 | 0.00 | 0.18 | 0.18 | 89 | 1006.3 |
| 20260510082006 | 18 | 163 | 0.0 | 3.2 | 0.00 | 0.18 | 0.18 | 89 | 1007.0 |
| 20260510081605 | 18 | 173 | 0.0 | 3.2 | 0.00 | 0.18 | 0.18 | 89 | 1007.9 |
| 20260510081205 | 18 | 173 | 0.0 | 3.2 | 0.00 | 0.18 | 0.18 | 89 | 1008.3 |
| 20260510080805 | 18 | 173 | 0.0 | 3.2 | 0.00 | 0.18 | 0.18 | 88 | 1008.4 |
| 20260510080405 | 18 | 173 | 1.6 | 6.4 | 0.00 | 0.18 | 0.18 | 88 | 1008.4 |
| 20260510080006 | 18 | 169 | 1.6 | 8.0 | 0.00 | 0.18 | 0.18 | 88 | 1008.6 |
| 20260510075604 | 18 | 167 | 1.6 | 8.0 | 0.00 | 0.18 | 0.18 | 88 | 1008.8 |
| 20260510075204 | 18 | 154 | 0.0 | 6.4 | 0.00 | 0.18 | 0.18 | 88 | 1008.7 |
| 20260510074804 | 18 | 152 | 0.0 | 1.6 | 0.00 | 0.18 | 0.18 | 89 | 1008.7 |
| 20260510074405 | 18 | 152 | 0.0 | 3.2 | 0.00 | 0.18 | 0.18 | 88 | 1009.2 |
| 20260510074006 | 18 | 157 | 0.0 | 6.4 | 0.00 | 0.18 | 0.18 | 87 | 1009.6 |
| 20260510073604 | 18 | 165 | 0.0 | 6.4 | 0.00 | 0.18 | 0.18 | 87 | 1009.7 |
| 20260510073205 | 18 | 203 | 0.0 | 4.8 | 0.00 | 0.18 | 0.18 | 85 | 1010.0 |
| 20260510072804 | 18 | 215 | 1.6 | 4.8 | 0.00 | 0.18 | 0.18 | 85 | 1010.4 |
| 20260510072405 | 19 | 208 | 1.6 | 8.0 | 0.00 | 0.18 | 0.18 | 86 | 1010.6 |
| 20260510071605 | 18 | 212 | 1.6 | 8.0 | 0.03 | 0.18 | 0.18 | 85 | 1011.4 |
| 20260510070804 | 18 | 228 | 1.6 | 4.8 | 0.18 | 0.18 | 0.18 | 87 | 1011.8 |
| 20260510070404 | 18 | 231 | 1.6 | 4.8 | 0.18 | 0.18 | 0.18 | 89 | 1011.7 |
| 20260510070006 | 18 | 233 | 1.6 | 4.8 | 0.18 | 0.18 | 0.18 | 90 | 1011.1 |
| 20260510065605 | 18 | 233 | 0.0 | 4.8 | 0.18 | 0.18 | 0.18 | 90 | 1010.9 |
| 20260510065206 | 18 | 233 | 0.0 | 1.6 | 0.18 | 0.18 | 0.18 | 90 | 1010.6 |
| 20260510064805 | 18 | 233 | 0.0 | 3.2 | 0.18 | 0.18 | 0.18 | 90 | 1010.5 |
| 20260510064405 | 18 | 233 | 0.0 | 3.2 | 0.18 | 0.18 | 0.18 | 89 | 1010.4 |
| 20260510064006 | 18 | 233 | 0.0 | 3.2 | 0.18 | 0.18 | 0.18 | 88 | 1010.5 |
| 20260510063605 | 18 | 233 | 0.0 | 3.2 | 0.18 | 0.18 | 0.18 | 88 | 1010.2 |
| 20260510062805 | 18 | 233 | 0.0 | 3.2 | 0.18 | 0.18 | 0.18 | 85 | 1010.0 |
| 20260510062404 | 19 | 0 | 0.0 | 0.0 | 0.18 | 0.18 | 0.18 | 84 | 1010.2 |
| 20260510062005 | 20 | 0 | 0.0 | 0.0 | 0.18 | 0.18 | 0.18 | 82 | 1010.3 |
| 20260510061605 | 20 | 232 | 0.0 | 1.6 | 0.15 | 0.15 | 0.15 | 81 | 1010.4 |
| 20260510060804 | 20 | 232 | 0.0 | 1.6 | 0.00 | 0.00 | 0.00 | 76 | 1010.7 |
| 20260510060405 | 20 | 232 | 0.0 | 1.6 | 0.00 | 0.00 | 0.00 | 76 | 1010.8 |
| 20260510060006 | 20 | 233 | 0.0 | 3.2 | 0.00 | 0.00 | 0.00 | 75 | 1011.0 |
| 20260510055605 | 20 | 233 | 0.0 | 3.2 | 0.00 | 0.00 | 0.00 | 79 | 1011.0 |
| 20260510055205 | 20 | 0 | 0.0 | 0.0 | 0.00 | 0.00 | 0.00 | 78 | 1010.9 |
| 20260510054805 | 19 | 0 | 0.0 | 0.0 | 0.00 | 0.00 | 0.00 | 78 | 1010.9 |
| 20260510054405 | 19 | 0 | 0.0 | 0.0 | 0.00 | 0.00 | 0.00 | 77 | 1010.8 |
| 20260510054005 | 19 | 0 | 0.0 | 0.0 | 0.00 | 0.00 | 0.00 | 78 | 1010.8 |
| 20260510053605 | 19 | 0 | 0.0 | 0.0 | 0.00 | 0.00 | 0.00 | 77 | 1010.7 |
| 20260510053204 | 18 | 0 | 0.0 | 0.0 | 0.00 | 0.00 | 0.00 | 76 | 1010.6 |
| 20260510052805 | 18 | 0 | 0.0 | 0.0 | 0.00 | 0.00 | 0.00 | 76 | 1010.4 |
| 20260510052006 | 18 | 0 | 0.0 | 0.0 | 0.00 | 0.00 | 0.00 | 77 | 1010.1 |
| 20260510051605 | 18 | 0 | 0.0 | 0.0 | 0.00 | 0.00 | 0.00 | 79 | 1010.0 |
| 20260510051205 | 18 | 0 | 0.0 | 0.0 | 0.00 | 0.00 | 0.00 | 76 | 1009.9 |
| 20260510050011 | 18 | 0 | 0.0 | 0.0 | 0.00 | 0.00 | 0.00 | 80 | 1009.6 |
| 20260510045605 | 18 | 0 | 0.0 | 0.0 | 0.00 | 0.00 | 0.00 | 77 | 1009.6 |
| 20260510045205 | 18 | 0 | 0.0 | 0.0 | 0.00 | 0.00 | 0.00 | 79 | 1009.6 |
| 20260510044805 | 18 | 0 | 0.0 | 0.0 | 0.00 | 0.00 | 0.00 | 78 | 1009.6 |
| 20260510044006 | 18 | 0 | 0.0 | 0.0 | 0.00 | 0.00 | 0.00 | 76 | 1009.7 |
| 20260510043205 | 18 | 232 | 0.0 | 1.6 | 0.00 | 0.00 | 0.00 | 78 | 1009.7 |
| 20260510042805 | 18 | 232 | 0.0 | 1.6 | 0.00 | 0.00 | 0.00 | 77 | 1009.5 |
| 20260510042405 | 18 | 0 | 0.0 | 0.0 | 0.00 | 0.00 | 0.00 | 79 | 1009.6 |
| 20260510042005 | 18 | 0 | 0.0 | 0.0 | 0.00 | 0.00 | 0.00 | 79 | 1009.6 |
| 20260510041605 | 18 | 0 | 0.0 | 0.0 | 0.00 | 0.00 | 0.00 | 76 | 1009.0 |
| 20260510040805 | 18 | 0 | 0.0 | 0.0 | 0.00 | 0.00 | 0.00 | 78 | 1009.2 |
| 20260510040405 | 18 | 0 | 0.0 | 0.0 | 0.00 | 0.00 | 0.00 | 77 | 1009.3 |
| 20260510040006 | 18 | 0 | 0.0 | 0.0 | 0.00 | 0.00 | 0.00 | 77 | 1009.2 |
| 20260510035205 | 19 | 0 | 0.0 | 0.0 | 0.00 | 0.00 | 0.00 | 77 | 1009.2 |
| 20260510034805 | 19 | 0 | 0.0 | 0.0 | 0.00 | 0.00 | 0.00 | 79 | 1009.1 |
| 20260510034006 | 19 | 0 | 0.0 | 0.0 | 0.00 | 0.00 | 0.00 | 79 | 1009.0 |
| 20260510033605 | 19 | 232 | 0.0 | 1.6 | 0.00 | 0.00 | 0.00 | 80 | 1009.0 |
| 20260510033205 | 19 | 232 | 0.0 | 1.6 | 0.00 | 0.00 | 0.00 | 80 | 1009.1 |
| 20260510032805 | 19 | 0 | 0.0 | 0.0 | 0.00 | 0.00 | 0.00 | 80 | 1009.3 |
| 20260510032405 | 19 | 0 | 0.0 | 0.0 | 0.00 | 0.00 | 0.00 | 83 | 1009.3 |
| 20260510031605 | 19 | 0 | 0.0 | 0.0 | 0.00 | 0.00 | 0.00 | 82 | 1009.3 |
| 20260510030805 | 19 | 0 | 0.0 | 0.0 | 0.00 | 0.00 | 0.00 | 83 | 1008.9 |
| 20260510030006 | 19 | 0 | 0.0 | 0.0 | 0.00 | 0.00 | 0.00 | 83 | 1008.7 |
| 20260510025205 | 19 | 0 | 0.0 | 0.0 | 0.00 | 0.03 | 0.00 | 84 | 1008.4 |
| 20260510024805 | 19 | 0 | 0.0 | 0.0 | 0.00 | 0.03 | 0.00 | 84 | 1008.2 |
| 20260510024405 | 19 | 0 | 0.0 | 0.0 | 0.00 | 0.03 | 0.00 | 82 | 1008.1 |
| 20260510024006 | 19 | 0 | 0.0 | 0.0 | 0.00 | 0.03 | 0.00 | 80 | 1008.0 |
| 20260510023605 | 19 | 0 | 0.0 | 0.0 | 0.00 | 0.03 | 0.00 | 79 | 1007.8 |
| 20260510023205 | 19 | 0 | 0.0 | 0.0 | 0.00 | 0.03 | 0.00 | 79 | 1007.6 |
| 20260510022405 | 19 | 0 | 0.0 | 0.0 | 0.00 | 0.03 | 0.00 | 77 | 1007.4 |
| 20260510022006 | 20 | 0 | 0.0 | 0.0 | 0.00 | 0.03 | 0.00 | 77 | 1007.4 |
| 20260510021605 | 20 | 0 | 0.0 | 0.0 | 0.00 | 0.03 | 0.00 | 79 | 1007.4 |
| 20260510020805 | 20 | 0 | 0.0 | 0.0 | 0.00 | 0.08 | 0.00 | 75 | 1007.2 |
| 20260510020405 | 20 | 0 | 0.0 | 0.0 | 0.00 | 0.08 | 0.00 | 74 | 1007.2 |
| 20260510020006 | 20 | 0 | 0.0 | 0.0 | 0.00 | 0.08 | 0.00 | 74 | 1007.1 |
| 20260510015605 | 20 | 0 | 0.0 | 0.0 | 0.00 | 0.08 | 0.00 | 74 | 1007.1 |
| 20260510015205 | 21 | 0 | 0.0 | 0.0 | 0.00 | 0.08 | 0.00 | 76 | 1007.0 |
| 20260510014805 | 21 | 0 | 0.0 | 0.0 | 0.00 | 0.08 | 0.00 | 76 | 1007.0 |
| 20260510014405 | 21 | 0 | 0.0 | 0.0 | 0.00 | 0.08 | 0.00 | 76 | 1006.9 |
| 20260510014006 | 21 | 0 | 0.0 | 0.0 | 0.00 | 0.08 | 0.00 | 74 | 1006.9 |
| 20260510013605 | 21 | 0 | 0.0 | 0.0 | 0.00 | 0.08 | 0.00 | 70 | 1006.9 |
| 20260510013205 | 21 | 0 | 0.0 | 0.0 | 0.00 | 0.08 | 0.00 | 70 | 1006.8 |
| 20260510012806 | 21 | 0 | 0.0 | 0.0 | 0.00 | 0.10 | 0.00 | 72 | 1006.8 |
| 20260510012406 | 22 | 0 | 0.0 | 0.0 | 0.00 | 0.13 | 0.00 | 70 | 1006.7 |
| 20260510012006 | 22 | 0 | 0.0 | 0.0 | 0.00 | 0.13 | 0.00 | 70 | 1006.8 |
| 20260510011605 | 22 | 0 | 0.0 | 0.0 | 0.00 | 0.13 | 0.00 | 68 | 1006.7 |
| 20260510011205 | 22 | 0 | 0.0 | 0.0 | 0.00 | 0.13 | 0.00 | 68 | 1006.7 |
| 20260510010806 | 22 | 0 | 0.0 | 0.0 | 0.00 | 0.13 | 0.00 | 65 | 1006.7 |
| 20260510010405 | 23 | 0 | 0.0 | 0.0 | 0.00 | 0.15 | 0.00 | 63 | 1006.6 |
| 20260510010006 | 23 | 0 | 0.0 | 0.0 | 0.00 | 0.18 | 0.00 | 65 | 1006.5 |
| 20260510005606 | 23 | 232 | 0.0 | 1.6 | 0.00 | 0.20 | 0.00 | 62 | 1006.4 |
| 20260510005207 | 23 | 232 | 0.0 | 1.6 | 0.00 | 0.33 | 0.00 | 61 | 1006.3 |
| 20260510004805 | 23 | 232 | 0.0 | 1.6 | 0.00 | 0.64 | 0.00 | 63 | 1006.3 |
| 20260510004406 | 24 | 0 | 0.0 | 0.0 | 0.00 | 0.69 | 0.00 | 62 | 1006.3 |
| 20260510004007 | 24 | 0 | 0.0 | 0.0 | 0.00 | 0.89 | 0.00 | 62 | 1006.2 |
| 20260510003606 | 24 | 242 | 0.0 | 1.6 | 0.00 | 1.52 | 0.00 | 57 | 1006.3 |
| 20260510003205 | 24 | 242 | 0.0 | 1.6 | 0.00 | 1.63 | 0.00 | 59 | 1006.1 |
| 20260510002405 | 24 | 0 | 0.0 | 0.0 | 0.00 | 1.63 | 0.00 | 58 | 1006.0 |
| 20260510002007 | 24 | 0 | 0.0 | 0.0 | 0.00 | 1.63 | 0.00 | 57 | 1006.0 |
| 20260510001605 | 24 | 205 | 0.0 | 1.6 | 0.00 | 1.63 | 0.00 | 57 | 1006.1 |
| 20260510000805 | 25 | 205 | 0.0 | 1.6 | 0.00 | 1.63 | 0.00 | 58 | 1006.1 |
| 20260510000406 | 25 | 205 | 0.0 | 1.6 | 0.00 | 1.63 | 0.00 | 58 | 1006.1 |
| 20260509235606 | 25 | 205 | 0.0 | 1.6 | 0.00 | 1.63 | 0.00 | 57 | 1006.2 |
| 20260509235205 | 26 | 206 | 0.0 | 3.2 | 0.00 | 1.63 | 0.00 | 56 | 1006.2 |
| 20260509234406 | 26 | 205 | 0.0 | 3.2 | 0.00 | 1.63 | 0.00 | 55 | 1006.3 |
| 20260509234007 | 26 | 205 | 0.0 | 3.2 | 0.00 | 1.63 | 0.00 | 53 | 1006.3 |
| 20260509233605 | 26 | 205 | 0.0 | 1.6 | 0.00 | 1.63 | 0.00 | 54 | 1006.3 |
| 20260509233205 | 27 | 205 | 0.0 | 1.6 | 0.00 | 1.63 | 0.00 | 50 | 1006.3 |
| 20260509232806 | 27 | 205 | 0.0 | 1.6 | 0.00 | 1.63 | 0.00 | 53 | 1006.3 |
| 20260509232405 | 27 | 205 | 0.0 | 1.6 | 0.00 | 1.63 | 0.00 | 50 | 1006.5 |
| 20260509232006 | 27 | 205 | 0.0 | 1.6 | 0.00 | 1.63 | 0.00 | 48 | 1006.4 |
| 20260509231606 | 28 | 201 | 0.0 | 3.2 | 0.00 | 1.63 | 0.00 | 48 | 1006.5 |
| 20260509230805 | 28 | 182 | 0.0 | 3.2 | 0.00 | 1.63 | 0.00 | 46 | 1006.6 |
| 20260509230406 | 28 | 166 | 0.0 | 1.6 | 0.00 | 1.63 | 0.00 | 48 | 1006.6 |
| 20260509230006 | 28 | 166 | 0.0 | 3.2 | 0.00 | 1.63 | 0.00 | 41 | 1006.6 |
| 20260509224805 | 28 | 167 | 1.6 | 3.2 | 0.00 | 1.63 | 0.00 | 46 | 1006.7 |
| 20260509224006 | 28 | 164 | 0.0 | 6.4 | 0.00 | 1.63 | 0.00 | 41 | 1006.8 |
| 20260509223205 | 28 | 151 | 1.6 | 6.4 | 0.00 | 1.63 | 0.00 | 42 | 1006.7 |
| 20260509222405 | 29 | 188 | 1.6 | 8.0 | 0.00 | 1.63 | 0.00 | 36 | 1006.9 |
| 20260509222006 | 29 | 50 | 1.6 | 11.3 | 0.00 | 1.63 | 0.00 | 38 | 1006.9 |
| 20260509221606 | 29 | 39 | 1.6 | 11.3 | 0.00 | 1.63 | 0.00 | 42 | 1006.8 |
| 20260509221205 | 30 | 191 | 1.6 | 9.7 | 0.00 | 1.63 | 0.00 | 37 | 1006.8 |
| 20260509220805 | 30 | 212 | 1.6 | 9.7 | 0.00 | 1.63 | 0.00 | 41 | 1006.8 |
| 20260509220406 | 30 | 35 | 1.6 | 6.4 | 0.00 | 1.63 | 0.00 | 39 | 1006.9 |
| 20260509220006 | 30 | 91 | 1.6 | 6.4 | 0.00 | 1.63 | 0.00 | 40 | 1006.9 |
| 20260509215605 | 30 | 65 | 1.6 | 9.7 | 0.00 | 1.63 | 0.00 | 38 | 1007.0 |
| 20260509215206 | 30 | 48 | 1.6 | 9.7 | 0.00 | 1.63 | 0.00 | 32 | 1006.9 |
| 20260509214805 | 30 | 359 | 1.6 | 9.7 | 0.00 | 1.63 | 0.00 | 30 | 1006.9 |
| 20260509214406 | 30 | 288 | 1.6 | 3.2 | 0.00 | 1.63 | 0.00 | 33 | 1006.9 |
| 20260509213206 | 30 | 324 | 0.0 | 6.4 | 0.00 | 1.63 | 0.00 | 38 | 1007.1 |
| 20260509212805 | 30 | 335 | 1.6 | 6.4 | 0.00 | 1.63 | 0.00 | 40 | 1007.1 |
| 20260509212406 | 30 | 329 | 1.6 | 6.4 | 0.00 | 1.63 | 0.00 | 45 | 1007.1 |
| 20260509212007 | 30 | 290 | 1.6 | 6.4 | 0.00 | 1.63 | 0.00 | 47 | 1007.1 |
| 20260509211605 | 30 | 233 | 1.6 | 6.4 | 0.00 | 1.63 | 0.00 | 44 | 1007.2 |
| 20260509211205 | 29 | 214 | 1.6 | 6.4 | 0.00 | 1.63 | 0.00 | 39 | 1007.2 |
| 20260509210805 | 29 | 211 | 1.6 | 6.4 | 0.00 | 1.63 | 0.00 | 46 | 1007.3 |
| 20260509210406 | 29 | 208 | 3.2 | 6.4 | 0.00 | 1.63 | 0.00 | 43 | 1007.3 |
| 20260509210007 | 29 | 204 | 1.6 | 6.4 | 0.00 | 1.63 | 0.00 | 39 | 1007.4 |
| 20260509205605 | 29 | 204 | 1.6 | 6.4 | 0.00 | 1.63 | 0.00 | 42 | 1007.4 |
| 20260509205206 | 29 | 205 | 3.2 | 6.4 | 0.00 | 1.63 | 0.00 | 44 | 1007.5 |
| 20260509204806 | 29 | 205 | 3.2 | 8.0 | 0.00 | 1.63 | 0.00 | 43 | 1007.4 |
| 20260509204405 | 29 | 257 | 3.2 | 11.3 | 0.00 | 1.63 | 0.00 | 42 | 1007.5 |
| 20260509203606 | 29 | 235 | 1.6 | 6.4 | 0.00 | 1.63 | 0.00 | 41 | 1007.5 |
| 20260509203206 | 29 | 211 | 3.2 | 6.4 | 0.00 | 1.63 | 0.00 | 48 | 1007.6 |
| 20260509202805 | 29 | 212 | 1.6 | 6.4 | 0.00 | 1.63 | 0.00 | 46 | 1007.6 |
| 20260509202406 | 29 | 207 | 1.6 | 6.4 | 0.00 | 1.63 | 0.00 | 40 | 1007.7 |
| 20260509202006 | 29 | 201 | 1.6 | 6.4 | 0.00 | 1.63 | 0.00 | 45 | 1007.8 |
| 20260509201206 | 29 | 226 | 1.6 | 9.7 | 0.00 | 1.63 | 0.00 | 39 | 1007.7 |
| 20260509200806 | 29 | 294 | 1.6 | 9.7 | 0.00 | 1.63 | 0.00 | 37 | 1007.8 |
| 20260509200406 | 29 | 23 | 1.6 | 6.4 | 0.00 | 1.63 | 0.00 | 39 | 1008.0 |
| 20260509200007 | 29 | 38 | 1.6 | 6.4 | 0.00 | 1.63 | 0.00 | 38 | 1008.0 |
| 20260509195605 | 29 | 16 | 1.6 | 6.4 | 0.00 | 1.63 | 0.00 | 40 | 1008.1 |
| 20260509194805 | 29 | 333 | 0.0 | 6.4 | 0.00 | 1.63 | 0.00 | 40 | 1008.1 |
| 20260509194406 | 29 | 331 | 0.0 | 6.4 | 0.00 | 1.63 | 0.00 | 44 | 1008.2 |
| 20260509194007 | 28 | 333 | 1.6 | 6.4 | 0.00 | 1.63 | 0.00 | 42 | 1008.2 |
| 20260509193606 | 28 | 317 | 1.6 | 6.4 | 0.00 | 1.63 | 0.00 | 41 | 1008.4 |
| 20260509193206 | 28 | 244 | 1.6 | 4.8 | 0.00 | 1.63 | 0.00 | 43 | 1008.4 |
| 20260509192406 | 28 | 219 | 1.6 | 4.8 | 0.00 | 1.63 | 0.00 | 46 | 1008.5 |
| 20260509192007 | 28 | 217 | 1.6 | 4.8 | 0.00 | 1.63 | 0.00 | 49 | 1008.5 |
| 20260509191607 | 28 | 225 | 1.6 | 4.8 | 0.00 | 1.63 | 0.00 | 46 | 1008.5 |
| 20260509191206 | 28 | 236 | 1.6 | 6.4 | 0.00 | 1.63 | 0.00 | 54 | 1008.5 |
| 20260509190805 | 28 | 307 | 1.6 | 6.4 | 0.00 | 1.63 | 0.00 | 50 | 1008.5 |
| 20260509190007 | 28 | 239 | 1.6 | 6.4 | 0.00 | 1.63 | 0.00 | 45 | 1008.3 |
| 20260509185606 | 28 | 204 | 1.6 | 8.0 | 0.00 | 1.63 | 0.00 | 61 | 1008.4 |
| 20260509184805 | 27 | 184 | 1.6 | 6.4 | 0.00 | 1.63 | 0.00 | 53 | 1008.4 |
| 20260509184405 | 27 | 175 | 1.6 | 6.4 | 0.00 | 1.63 | 0.00 | 51 | 1008.4 |
| 20260509184006 | 27 | 160 | 1.6 | 6.4 | 0.00 | 1.63 | 0.00 | 53 | 1008.5 |
| 20260509183606 | 27 | 155 | 1.6 | 6.4 | 0.00 | 1.63 | 0.00 | 58 | 1008.6 |
| 20260509183206 | 27 | 167 | 1.6 | 6.4 | 0.00 | 1.63 | 0.00 | 57 | 1008.6 |
| 20260509182806 | 27 | 173 | 1.6 | 6.4 | 0.00 | 1.63 | 0.00 | 56 | 1008.6 |
| 20260509182406 | 27 | 205 | 1.6 | 4.8 | 0.00 | 1.63 | 0.00 | 60 | 1008.6 |
| 20260509182006 | 27 | 205 | 1.6 | 4.8 | 0.00 | 1.63 | 0.00 | 53 | 1008.6 |
| 20260509180806 | 26 | 62 | 1.6 | 6.4 | 0.00 | 1.63 | 0.00 | 50 | 1008.6 |
| 20260509180406 | 26 | 28 | 1.6 | 8.0 | 0.00 | 1.63 | 0.00 | 61 | 1008.7 |
| 20260509180007 | 26 | 24 | 3.2 | 8.0 | 0.00 | 1.63 | 0.00 | 61 | 1008.7 |
| 20260509175606 | 26 | 21 | 3.2 | 8.0 | 0.00 | 1.63 | 0.00 | 61 | 1008.8 |
| 20260509175206 | 25 | 13 | 1.6 | 8.0 | 0.00 | 1.63 | 0.00 | 65 | 1008.8 |
| 20260509174806 | 25 | 38 | 0.0 | 3.2 | 0.00 | 1.63 | 0.00 | 72 | 1008.9 |
| 20260509174406 | 25 | 38 | 1.6 | 4.8 | 0.00 | 1.63 | 0.00 | 68 | 1008.9 |
| 20260509173606 | 25 | 11 | 3.2 | 6.4 | 0.00 | 1.63 | 0.00 | 66 | 1009.1 |
| 20260509173206 | 25 | 313 | 1.6 | 6.4 | 0.00 | 1.63 | 0.00 | 68 | 1009.2 |
| 20260509172806 | 25 | 271 | 1.6 | 8.0 | 0.00 | 1.63 | 0.00 | 69 | 1009.3 |
| 20260509172406 | 25 | 332 | 1.6 | 8.0 | 0.00 | 1.63 | 0.00 | 69 | 1009.4 |
| 20260509172007 | 25 | 2 | 3.2 | 8.0 | 0.00 | 1.63 | 0.00 | 73 | 1009.4 |
| 20260509171606 | 25 | 27 | 1.6 | 6.4 | 0.00 | 1.63 | 0.00 | 73 | 1009.5 |
| 20260509171206 | 25 | 42 | 3.2 | 6.4 | 0.00 | 1.63 | 0.00 | 72 | 1009.4 |
| 20260509170806 | 24 | 43 | 3.2 | 6.4 | 0.00 | 1.63 | 0.00 | 76 | 1009.5 |
| 20260509170007 | 24 | 346 | 1.6 | 8.0 | 0.00 | 1.63 | 0.00 | 76 | 1009.4 |
| 20260509165607 | 24 | 328 | 1.6 | 8.0 | 0.00 | 1.63 | 0.00 | 78 | 1009.5 |
| 20260509165206 | 24 | 307 | 0.0 | 8.0 | 0.00 | 1.63 | 0.00 | 76 | 1009.5 |
| 20260509164806 | 23 | 355 | 0.0 | 6.4 | 0.00 | 1.63 | 0.00 | 79 | 1009.5 |
| 20260509164406 | 23 | 355 | 1.6 | 6.4 | 0.00 | 1.63 | 0.00 | 80 | 1009.5 |
| 20260509164007 | 23 | 13 | 1.6 | 6.4 | 0.00 | 1.63 | 0.00 | 81 | 1009.5 |
| 20260509163607 | 23 | 30 | 1.6 | 6.4 | 0.00 | 1.63 | 0.00 | 81 | 1009.5 |
| 20260509163206 | 22 | 49 | 3.2 | 6.4 | 0.00 | 1.63 | 0.00 | 81 | 1009.4 |
| 20260509162806 | 22 | 60 | 1.6 | 6.4 | 0.00 | 1.63 | 0.00 | 82 | 1009.4 |
| 20260509162006 | 22 | 0 | 0.0 | 0.0 | 0.00 | 1.63 | 0.00 | 84 | 1009.4 |
| 20260509161606 | 22 | 130 | 0.0 | 3.2 | 0.00 | 1.63 | 0.00 | 83 | 1009.4 |
| 20260509161206 | 21 | 130 | 0.0 | 3.2 | 0.00 | 1.63 | 0.00 | 86 | 1009.5 |
| 20260509160805 | 21 | 0 | 0.0 | 0.0 | 0.00 | 1.63 | 0.00 | 89 | 1009.5 |
| 20260509160406 | 21 | 0 | 0.0 | 0.0 | 0.00 | 1.63 | 0.00 | 87 | 1009.5 |
| 20260509160009 | 21 | 0 | 0.0 | 0.0 | 0.00 | 1.63 | 0.00 | 87 | 1009.5 |
| 20260509155606 | 21 | 0 | 0.0 | 0.0 | 0.00 | 1.63 | 0.00 | 83 | 1009.6 |
| 20260509155206 | 21 | 193 | 0.0 | 3.2 | 0.00 | 1.63 | 0.00 | 85 | 1009.5 |
| 20260509154806 | 21 | 192 | 0.0 | 3.2 | 0.00 | 1.63 | 0.00 | 85 | 1009.5 |
| 20260509154406 | 21 | 192 | 0.0 | 3.2 | 0.00 | 1.63 | 0.00 | 86 | 1009.5 |
| 20260509154008 | 20 | 192 | 0.0 | 3.2 | 0.00 | 1.63 | 0.00 | 87 | 1009.4 |
| 20260509153606 | 20 | 192 | 0.0 | 3.2 | 0.00 | 1.63 | 0.00 | 87 | 1009.5 |
| 20260509153206 | 20 | 192 | 0.0 | 3.2 | 0.00 | 1.63 | 0.00 | 86 | 1009.5 |
| 20260509152806 | 20 | 193 | 0.0 | 1.6 | 0.00 | 1.63 | 0.00 | 89 | 1009.5 |
| 20260509152007 | 20 | 0 | 0.0 | 0.0 | 0.00 | 1.63 | 0.00 | 87 | 1009.7 |
| 20260509151607 | 20 | 0 | 0.0 | 0.0 | 0.00 | 1.63 | 0.00 | 89 | 1009.7 |
| 20260509151206 | 20 | 0 | 0.0 | 0.0 | 0.00 | 1.63 | 0.00 | 88 | 1009.6 |
| 20260509150806 | 20 | 193 | 0.0 | 1.6 | 0.00 | 1.63 | 0.00 | 87 | 1009.6 |
| 20260509150008 | 19 | 193 | 0.0 | 3.2 | 0.00 | 1.63 | 0.00 | 88 | 1009.7 |
| 20260509145607 | 19 | 192 | 0.0 | 4.8 | 0.00 | 1.63 | 0.00 | 88 | 1009.7 |
| 20260509145205 | 18 | 192 | 0.0 | 4.8 | 0.00 | 1.63 | 0.00 | 90 | 1009.7 |
| 20260509144805 | 18 | 0 | 0.0 | 0.0 | 0.00 | 1.63 | 0.00 | 92 | 1009.7 |
| 20260509144405 | 18 | 0 | 0.0 | 0.0 | 0.00 | 1.63 | 0.00 | 93 | 1009.7 |
| 20260509144006 | 18 | 0 | 0.0 | 0.0 | 0.00 | 1.63 | 0.00 | 93 | 1009.6 |
| 20260509143604 | 18 | 0 | 0.0 | 0.0 | 0.00 | 1.63 | 0.00 | 93 | 1009.6 |
| 20260509143205 | 18 | 0 | 0.0 | 0.0 | 0.00 | 1.63 | 0.00 | 93 | 1009.6 |
| 20260509142806 | 17 | 0 | 0.0 | 0.0 | 0.00 | 1.63 | 0.00 | 93 | 1009.6 |
| 20260509142404 | 17 | 0 | 0.0 | 0.0 | 0.00 | 1.63 | 0.00 | 93 | 1009.6 |
| 20260509142006 | 17 | 191 | 0.0 | 1.6 | 0.00 | 1.63 | 0.00 | 92 | 1009.6 |
| 20260509141605 | 17 | 191 | 0.0 | 1.6 | 0.00 | 1.63 | 0.00 | 92 | 1009.5 |
| 20260509141205 | 17 | 191 | 0.0 | 1.6 | 0.00 | 1.63 | 0.00 | 91 | 1009.5 |
| 20260509140405 | 17 | 0 | 0.0 | 0.0 | 0.00 | 1.63 | 0.00 | 91 | 1009.5 |
| 20260509140006 | 17 | 0 | 0.0 | 0.0 | 0.00 | 1.63 | 0.00 | 90 | 1009.4 |
| 20260509135605 | 17 | 0 | 0.0 | 0.0 | 0.00 | 1.63 | 0.00 | 91 | 1009.3 |
| 20260509135205 | 17 | 0 | 0.0 | 0.0 | 0.00 | 1.63 | 0.00 | 92 | 1009.3 |
| 20260509134805 | 17 | 0 | 0.0 | 0.0 | 0.00 | 1.63 | 0.00 | 93 | 1009.3 |
| 20260509134404 | 17 | 0 | 0.0 | 0.0 | 0.00 | 1.63 | 0.00 | 95 | 1009.2 |
| 20260509134005 | 17 | 0 | 0.0 | 0.0 | 0.00 | 1.63 | 0.00 | 96 | 1009.2 |
| 20260509133605 | 16 | 0 | 0.0 | 0.0 | 0.00 | 1.63 | 0.00 | 97 | 1009.1 |
| 20260509132405 | 16 | 0 | 0.0 | 0.0 | 0.00 | 1.63 | 0.00 | 97 | 1009.0 |
| 20260509132006 | 16 | 0 | 0.0 | 0.0 | 0.00 | 1.63 | 0.00 | 97 | 1008.8 |
| 20260509130805 | 15 | 0 | 0.0 | 0.0 | 0.00 | 1.63 | 0.00 | 97 | 1008.7 |
| 20260509130404 | 15 | 0 | 0.0 | 0.0 | 0.00 | 1.63 | 0.00 | 97 | 1008.7 |
| 20260509130006 | 14 | 0 | 0.0 | 0.0 | 0.00 | 1.63 | 0.00 | 97 | 1008.8 |
| 20260509125605 | 14 | 0 | 0.0 | 0.0 | 0.00 | 1.63 | 0.00 | 97 | 1008.7 |
| 20260509125205 | 14 | 0 | 0.0 | 0.0 | 0.00 | 1.63 | 0.00 | 96 | 1008.7 |
| 20260509124805 | 14 | 0 | 0.0 | 0.0 | 0.00 | 1.63 | 0.00 | 96 | 1008.8 |
| 20260509124405 | 14 | 0 | 0.0 | 0.0 | 0.00 | 1.63 | 0.00 | 96 | 1008.8 |
| 20260509124006 | 13 | 0 | 0.0 | 0.0 | 0.00 | 1.63 | 0.00 | 96 | 1008.7 |
| 20260509123606 | 13 | 0 | 0.0 | 0.0 | 0.00 | 1.63 | 0.00 | 96 | 1008.8 |
| 20260509123205 | 13 | 0 | 0.0 | 0.0 | 0.00 | 1.63 | 0.00 | 96 | 1008.7 |
| 20260509122006 | 13 | 0 | 0.0 | 0.0 | 0.00 | 1.63 | 0.00 | 96 | 1008.5 |
| 20260509121606 | 13 | 0 | 0.0 | 0.0 | 0.00 | 1.63 | 0.00 | 96 | 1008.6 |
| 20260509120805 | 13 | 0 | 0.0 | 0.0 | 0.00 | 1.63 | 0.00 | 96 | 1008.4 |
| 20260509115605 | 13 | 0 | 0.0 | 0.0 | 0.00 | 1.63 | 0.00 | 96 | 1008.4 |
| 20260509115205 | 13 | 0 | 0.0 | 0.0 | 0.00 | 1.63 | 0.00 | 95 | 1008.3 |
| 20260509114806 | 13 | 0 | 0.0 | 0.0 | 0.00 | 1.63 | 0.00 | 95 | 1008.3 |
| 20260509114405 | 13 | 0 | 0.0 | 0.0 | 0.00 | 1.63 | 0.00 | 95 | 1008.3 |
| 20260509114006 | 13 | 0 | 0.0 | 0.0 | 0.00 | 1.63 | 0.00 | 95 | 1008.2 |
| 20260509113605 | 13 | 0 | 0.0 | 0.0 | 0.00 | 1.63 | 0.00 | 95 | 1008.2 |
| 20260509113205 | 13 | 0 | 0.0 | 0.0 | 0.00 | 1.63 | 0.00 | 95 | 1008.1 |
| 20260509112805 | 13 | 0 | 0.0 | 0.0 | 0.00 | 1.63 | 0.00 | 95 | 1008.1 |
| 20260509112006 | 13 | 0 | 0.0 | 0.0 | 0.00 | 1.63 | 0.00 | 95 | 1007.9 |
| 20260509111605 | 13 | 0 | 0.0 | 0.0 | 0.00 | 1.63 | 0.00 | 95 | 1007.7 |
| 20260509111205 | 13 | 0 | 0.0 | 0.0 | 0.00 | 1.63 | 0.00 | 95 | 1007.6 |
| 20260509110805 | 13 | 0 | 0.0 | 0.0 | 0.00 | 1.63 | 0.00 | 95 | 1007.5 |
| 20260509110406 | 13 | 0 | 0.0 | 0.0 | 0.00 | 1.63 | 0.00 | 95 | 1007.6 |
| 20260509110007 | 13 | 0 | 0.0 | 0.0 | 0.00 | 1.63 | 0.00 | 95 | 1007.6 |
| 20260509105605 | 13 | 0 | 0.0 | 0.0 | 0.00 | 1.63 | 0.00 | 95 | 1007.6 |
| 20260509105206 | 13 | 0 | 0.0 | 0.0 | 0.00 | 1.63 | 0.00 | 95 | 1007.6 |
| 20260509104806 | 13 | 0 | 0.0 | 0.0 | 0.00 | 1.63 | 0.00 | 95 | 1007.6 |
| 20260509104405 | 13 | 0 | 0.0 | 0.0 | 0.00 | 1.63 | 0.00 | 95 | 1007.6 |
| 20260509104006 | 13 | 0 | 0.0 | 0.0 | 0.00 | 1.63 | 0.00 | 95 | 1007.6 |
| 20260509103205 | 13 | 0 | 0.0 | 0.0 | 0.00 | 1.63 | 0.00 | 95 | 1007.6 |
| 20260509102805 | 13 | 0 | 0.0 | 0.0 | 0.00 | 1.63 | 0.00 | 95 | 1007.7 |
| 20260509102405 | 13 | 0 | 0.0 | 0.0 | 0.00 | 1.63 | 0.00 | 95 | 1007.7 |
| 20260509102006 | 13 | 0 | 0.0 | 0.0 | 0.00 | 1.63 | 0.00 | 95 | 1007.7 |
| 20260509101605 | 13 | 0 | 0.0 | 0.0 | 0.00 | 1.63 | 0.00 | 95 | 1007.8 |
| 20260509101205 | 13 | 0 | 0.0 | 0.0 | 0.00 | 1.63 | 0.00 | 95 | 1007.8 |
| 20260509100806 | 13 | 0 | 0.0 | 0.0 | 0.00 | 1.63 | 0.00 | 95 | 1007.8 |
| 20260509100406 | 13 | 0 | 0.0 | 0.0 | 0.00 | 1.63 | 0.00 | 95 | 1007.8 |
| 20260509100006 | 13 | 0 | 0.0 | 0.0 | 0.00 | 1.63 | 0.00 | 95 | 1007.8 |
| 20260509095605 | 13 | 0 | 0.0 | 0.0 | 0.00 | 1.63 | 0.00 | 95 | 1007.8 |